EB5EEV-5 Weather Reports


Display with metric or nautical units.
time (UTC)temp
F
wind
direction
speed
MPH
gust
MPH
rain 1hr
in
rain 24hr
in
rain mn
in
humidity
%
barometer
mb
20260502163404 69 256 4.0 6.0 0.00 0.00 0.01 7 1013.9
20260502162125 69 332 5.0 7.0 0.00 0.00 0.01 7 1013.9
20260502160700 69 329 9.0 12.0 0.00 0.00 0.01 7 1013.8
20260502151228 70 326 3.0 3.0 0.00 0.00 0.01 7 1014.4
20260502123228 68 335 2.0 6.0 0.00 0.00 0.01 8 1016.3
20260502121913 68 357 2.0 4.0 0.00 0.00 0.01 8 1016.3
20260502120658 68 310 3.0 4.0 0.00 0.00 0.01 8 1016.5
20260502115300 68 302 4.0 4.0 0.00 0.00 0.01 8 1016.7
20260502114033 68 293 1.0 1.0 0.00 0.00 0.01 8 1016.9
20260502112538 68 0 0.0 1.0 0.00 0.00 0.01 8 1016.9
20260502111332 68 0 0.0 1.0 0.00 0.00 0.01 8 1017.0
20260502110045 67 232 1.0 3.0 0.00 0.00 0.01 8 1017.1
20260502105805 67 232 1.0 3.0 0.00 0.00 0.01 8 1017.1
20260502104511 68 0 0.0 0.0 0.00 0.00 0.01 8 1017.2
20260502103224 68 0 0.0 0.0 0.00 0.00 0.01 8 1017.2
20260502102016 66 127 3.0 3.0 0.00 0.00 0.01 8 1017.3
20260502100702 66 0 0.0 0.0 0.00 0.00 0.01 8 1017.5
20260502091416 64 130 1.0 3.0 0.00 0.00 0.00 8 1017.7
20260502071132 65 0 0.0 0.0 0.00 0.00 0.00 8 1017.5
20260502065817 64 0 0.0 0.0 0.00 0.00 0.00 8 1017.4
20260502064612 64 0 0.0 0.0 0.00 0.00 0.00 8 1017.4
20260502063145 64 0 0.0 0.0 0.00 0.00 0.00 8 1017.6
20260502061845 63 135 1.0 1.0 0.00 0.00 0.00 8 1017.6
20260502060446 63 0 0.0 0.0 0.00 0.00 0.00 8 1017.5
20260502054023 63 0 0.0 0.0 0.00 0.00 0.00 8 1017.4
20260502052531 63 0 0.0 1.0 0.00 0.00 0.00 8 1017.1
20260502051051 63 0 0.0 0.0 0.00 0.00 0.00 8 1017.3
20260502045556 64 0 0.0 0.0 0.00 0.00 0.00 8 1017.2
20260502044105 64 0 0.0 0.0 0.00 0.00 0.00 8 1017.4
20260502042645 64 0 0.0 0.0 0.00 0.00 0.00 8 1017.4
20260502041234 64 0 0.0 0.0 0.00 0.00 0.00 8 1017.4
20260502035926 64 0 0.0 0.0 0.00 0.00 0.00 8 1017.6
20260502034536 63 0 0.0 1.0 0.00 0.00 0.00 8 1017.6
20260502033313 63 0 0.0 1.0 0.00 0.00 0.00 8 1017.6
20260502031836 63 0 0.0 1.0 0.00 0.00 0.00 8 1017.7
20260502030637 63 0 0.0 0.0 0.00 0.00 0.00 8 1017.5
20260502025150 63 0 0.0 0.0 0.00 0.00 0.00 8 1017.6
20260502023805 63 0 0.0 0.0 0.00 0.00 0.00 8 1017.6
20260502022456 63 0 0.0 0.0 0.00 0.00 0.00 8 1017.6
20260502021036 63 0 0.0 1.0 0.00 0.00 0.00 8 1017.8
20260502015743 63 0 0.0 0.0 0.00 0.00 0.00 8 1017.8
20260502014445 63 0 0.0 0.0 0.00 0.00 0.00 8 1017.9
20260502013014 62 0 0.0 0.0 0.00 0.00 0.00 8 1018.0
20260502011639 62 0 0.0 0.0 0.00 0.00 0.00 8 1018.0
20260502010401 62 0 0.0 1.0 0.00 0.00 0.00 8 1018.2
20260502005141 63 0 0.0 1.0 0.00 0.00 0.00 8 1018.2
20260502003911 63 0 0.0 1.0 0.00 0.00 0.00 8 1018.2
20260502002628 63 0 0.0 1.0 0.00 0.00 0.00 8 1018.5
20260502001416 64 0 0.0 0.0 0.00 0.00 0.00 8 1018.8
20260502000221 64 0 0.0 0.0 0.00 0.00 0.00 8 1018.8
20260501234913 64 0 0.0 0.0 0.00 0.00 0.00 8 1018.8
20260501233427 64 0 0.0 0.0 0.00 0.00 0.00 8 1019.0
20260501232155 64 0 0.0 0.0 0.00 0.00 0.00 8 1019.1
20260501230906 64 153 1.0 1.0 0.00 0.00 0.00 8 1019.2
20260501225538 64 0 0.0 0.0 0.00 0.00 0.00 8 1019.0
20260501224321 64 0 0.0 0.0 0.00 0.00 0.00 8 1019.0
20260501223045 64 0 0.0 0.0 0.00 0.00 0.00 8 1019.2
20260501221849 64 0 0.0 0.0 0.00 0.00 0.00 8 1019.2
20260501220539 65 0 0.0 0.0 0.00 0.00 0.00 8 1019.3
20260501215123 65 0 0.0 0.0 0.00 0.00 0.03 8 1019.4
20260501213840 65 0 0.0 1.0 0.00 0.00 0.03 8 1019.4
20260501212608 65 143 1.0 1.0 0.00 0.00 0.03 8 1019.6
20260501211201 65 113 3.0 3.0 0.00 0.00 0.03 8 1019.7
20260501204505 65 0 0.0 2.0 0.00 0.00 0.03 8 1019.4
20260501203109 65 0 0.0 2.0 0.00 0.00 0.03 8 1019.4
20260501201626 65 0 0.0 0.0 0.00 0.00 0.03 8 1019.2
20260501200252 65 0 0.0 1.0 0.00 0.00 0.03 8 1019.1
20260501194754 65 0 0.0 4.0 0.00 0.00 0.03 8 1018.8
20260501193405 65 0 0.0 1.0 0.00 0.00 0.03 8 1018.7
20260501192128 65 144 3.0 4.0 0.00 0.00 0.03 8 1018.4
20260501190650 65 220 1.0 1.0 0.00 0.00 0.03 8 1018.2
20260501185205 65 229 1.0 3.0 0.00 0.00 0.03 8 1018.2
20260501183840 65 234 1.0 3.0 0.00 0.00 0.03 8 1018.2
20260501182556 66 191 2.0 2.0 0.00 0.00 0.03 8 1018.2
20260501180029 66 122 2.0 4.0 0.00 0.00 0.03 8 1017.9
20260501174640 66 122 2.0 4.0 0.00 0.00 0.03 8 1017.9
20260501173335 67 123 1.0 2.0 0.00 0.00 0.03 7 1017.9
20260501172128 67 125 1.0 4.0 0.00 0.00 0.03 7 1017.7
20260501170645 67 229 5.0 5.0 0.00 0.00 0.03 7 1017.6
20260501165350 68 150 6.0 6.0 0.00 0.00 0.03 7 1017.5
20260501163852 68 160 2.0 10.0 0.00 0.00 0.03 7 1017.5